This demonstration page uses our WeatherBlox Daily Observations layout. Learn more.

Left ArrowRight Arrow

30.21309, -93.2044

Hourly Observations for June 9, 2019

Temp ( °F °C ) Dew Point ( °F °C ) Humidity (%) Winds ( mph kmh ) Pressure ( in mb ) Visibility ( mi km ) Precip ( " mm )
12:15 am 00:15 Clear 78 25.5 73 22.5 84 84 N 3 6 29.81 1009 7 11 0.01 0.25
12:35 am 00:35 Clear 78 25.3 73 22.5 85 85 N 3 6 29.81 1009 10 16 0.01 0.25
12:55 am 00:55 Clear 77 25.2 73 22.5 85 85 N 5 7 29.81 1009 10 16 0.01 0.25
1:15 am 01:15 Clear 77 25 72 22.3 85 85 N 5 7 29.81 1009 10 16 0.00 0.00
1:35 am 01:35 Clear 76 24.7 72 22.3 87 87 NNE 5 7 29.81 1009 10 16 0.00 0.00
2:15 am 02:15 Partly Cloudy 76 24.3 72 22.3 89 89 NNE 5 7 29.81 1009 10 16 0.00 0.00
2:35 am 02:35 Mostly Cloudy 76 24.2 72 22.3 89 89 NNE 3 6 29.81 1009 7 11 0.00 0.00
2:55 am 02:55 Mostly Cloudy 76 24.2 72 22.3 89 89 NNE 3 6 29.81 1009 10 16 0.00 0.00
3:15 am 03:15 Mostly Cloudy 75 24 72 22.3 90 90 Calm 29.81 1009 10 16 0.00 0.00
3:35 am 03:35 Mostly Cloudy 75 23.7 72 22.2 91 91 NNE 3 6 29.82 1010 10 16 0.00 0.00
3:55 am 03:55 Partly Cloudy 74 23.5 72 22.1 92 92 NNE 5 7 29.82 1010 10 16 0.00 0.00
4:15 am 04:15 Partly Cloudy 74 23.4 72 22.1 92 92 NNE 3 6 29.83 1010 10 16 0.00 0.00
4:55 am 04:55 Partly Cloudy 74 23.2 72 22.1 94 94 N 3 6 29.84 1010 7 11 0.00 0.00
5:15 am 05:15 Mostly Cloudy 74 23.3 72 22.1 93 93 N 5 7 29.84 1010 7 11 0.00 0.00
5:35 am 05:35 Mostly Cloudy 74 23.1 72 22 94 94 Calm 29.85 1011 10 16 0.00 0.00
6:00 am 06:00 Mostly Clear 73 23 72 22 94 94 VRB 7 11 29.86 1011 10 16 0.00 0.00
6:50 am 06:50 Mostly Sunny 73 23 72 22 94 94 VRB 7 11 29.87 1011 10 16 0.00 0.00
7:50 am 07:50 Mostly Sunny 79 26 73 23 84 84 Calm 29.89 1012 10 16 0.00 0.00
8:45 am 08:45 Mostly Sunny 82 28 72 22 70 70 Calm 29.91 1013 10 16 0.00 0.00
9:45 am 09:45 Mostly Sunny 84 29 70 21 62 62 VRB 3 6 29.91 1013 10 16 0.00 0.00
10:55 am 10:55 Mostly Sunny 86 30 68 20 55 55 Calm 29.91 1013 10 16 0.00 0.00
11:55 am 11:55 Mostly Sunny 88 31 70 21 55 55 SE 5 7 29.91 1013 10 16 0.00 0.00
12:55 pm 12:55 Partly Cloudy 88 31 68 20 52 52 VRB 3 6 29.92 1013 10 16 0.00 0.00
1:50 pm 13:50 Partly Cloudy 90 32 68 20 49 49 VRB 7 11 29.92 1013 10 16 0.00 0.00
2:55 pm 14:55 Mostly Sunny 90 32 68 20 49 49 VRB 7 11 29.90 1012 10 16 0.00 0.00
4:50 pm 16:50 Partly Cloudy 91 33 68 20 46 46 VRB 7 11 29.92 1013 10 16 0.00 0.00
5:50 pm 17:50 Partly Cloudy 90 32 72 22 55 55 VRB 7 11 29.92 1013 10 16 0.00 0.00
6:50 pm 18:50 Mostly Sunny 88 31 73 23 62 62 Calm 29.92 1013 10 16 0.00 0.00
7:50 pm 19:50 Mostly Sunny 84 29 72 22 66 66 Calm 29.89 1012 10 16 0.00 0.00
8:55 pm 20:55 Mostly Clear 81 27 73 23 79 79 Calm 29.89 1012 10 16 0.00 0.00
9:50 pm 21:50 Mostly Clear 81 27 73 23 79 79 Calm 29.93 1014 10 16 0.00 0.00
10:15 pm 22:15 Clear 81 27.1 73 22.5 76 76 N 8 13 29.96 1015 10 16 0.00 0.00
10:35 pm 22:35 Clear 80 26.5 73 22.7 80 80 N 8 13 29.96 1015 10 16 0.00 0.00
10:55 pm 22:55 Clear 79 26 73 22.6 82 82 N 3 6 29.97 1015 10 16 0.00 0.00
11:15 pm 23:15 Clear 78 25.8 73 22.6 83 83 N 5 7 29.98 1015 10 16 0.00 0.00
11:35 pm 23:35 Clear 79 26 73 22.5 81 81 N 5 7 29.99 1016 10 16 0.00 0.00
11:55 pm 23:55 Clear 78 25.7 72 22.2 81 81 N 5 7 29.99 1016 10 16 0.00 0.00

Powered by AerisWeather